Weather History for PAHN - October, 2010

Change the Weather History Date:

Wednesday, October 6, 2010

  Actual Average Record
Temperature  
Mean Temperature 47 °F -  
Max Temperature 48 °F 48 °F - (-1)
Min Temperature 46 °F 39 °F - (-1)
Degree Days  
Heating Degree Days 18    
Moisture  
Dew Point 42 °F    
Average Humidity 82    
Maximum Humidity 87    
Minimum Humidity 74    
Precipitation  
Precipitation 0.00 in - - ()
Sea Level Pressure  
Sea Level Pressure 29.76 in    
Wind  
Wind Speed 11 mph (East)    
Max Wind Speed 18 mph    
Max Gust Speed 36 mph    
Visibility 10 miles    
Events Rain    
Averages and records for this station are not official NWS values.
T = Trace of Precipitation, MM = Missing Value Source: NWS Daily Summary

Daily Weather History Graph

Daily Weather History Graph

Search for Another Location

Airport or City:

Trip Planner

Search our weather history database for the weather conditions in past years. The results will help you decide how hot, cold, wet, or windy it might be!

Date:

Astronomy

Oct. 06, 2010 Rise Set
Actual Time 7:18 AM AKDT 6:19 PM AKDT
Civil Twilight 6:38 AM AKDT 7:00 PM AKDT
Nautical Twilight 5:51 AM AKDT 7:47 PM AKDT
Astronomical Twilight 5:02 AM AKDT 8:36 PM AKDT
Moon 6:00 AM AKDT (10/6) 5:22 PM AKDT (10/6)
Length of Visible Light 12h 22m
Length of Day
11h 01m
Waning Crescent, 1% of the Moon is Illuminated
Oct 6
Waning Crescent
Oct 7
New
Oct 14
First Quarter
Oct 22
Full
Oct 30
Last Quarter

Hourly Weather History & Observations

Time (AKDT) Temp. Windchill Dew Point Humidity Pressure Visibility Wind Dir Wind Speed Gust Speed Precip Events Conditions
12:54 AM 48.0 °F - 39.9 °F 74% 29.75 in 10.0 mi ESE 18.4 mph 35.7 mph N/A   Overcast
1:54 AM 46.9 °F - 42.1 °F 83% 29.77 in 10.0 mi ESE 17.3 mph 28.8 mph N/A   Overcast
2:54 AM 46.9 °F - 42.1 °F 83% 29.78 in 10.0 mi East 10.4 mph 18.4 mph N/A   Overcast
3:54 AM 46.9 °F - 42.1 °F 83% 29.76 in 10.0 mi East 11.5 mph 19.6 mph N/A   Overcast
4:20 AM 46.4 °F 41.9 °F 42.8 °F 87% 29.73 in 10.0 mi East 9.2 mph 19.6 mph N/A   Mostly Cloudy
4:46 AM 46.4 °F 41.5 °F 42.8 °F 87% 29.71 in 10.0 mi East 10.4 mph 19.6 mph N/A   Scattered Clouds
4:54 AM 46.9 °F - 42.1 °F 83% 29.72 in 10.0 mi East 9.2 mph 18.4 mph N/A   Partly Cloudy
5:35 AM 46.4 °F 43.5 °F 41.0 °F 81% 29.68 in 10.0 mi Variable 5.8 mph - N/A   Mostly Cloudy
5:54 AM 46.9 °F - 41.0 °F 80% 29.68 in 10.0 mi East 5.8 mph - N/A   Overcast
6:54 AM 46.9 °F - 42.1 °F 83% 29.66 in 10.0 mi Variable 4.6 mph - N/A   Overcast
7:03 AM 46.4 °F 42.9 °F 42.8 °F 87% 29.65 in 10.0 mi ENE 6.9 mph - N/A   Overcast
7:54 AM 46.9 °F - 41.0 °F 80% 29.65 in 10.0 mi ENE 9.2 mph - N/A   Overcast
8:01 AM 46.4 °F 42.9 °F 41.0 °F 81% 29.64 in 10.0 mi East 6.9 mph - N/A   Overcast
8:14 AM 46.4 °F 41.5 °F 39.2 °F 76% 29.64 in 10.0 mi ENE 10.4 mph - N/A   Overcast
8:54 AM 46.9 °F - 39.9 °F 77% 29.66 in 10.0 mi ENE 10.4 mph 18.4 mph N/A   Overcast
9:54 AM 46.9 °F - 41.0 °F 80% 29.68 in 10.0 mi East 6.9 mph - N/A   Overcast
10:54 AM 48.0 °F - 41.0 °F 77% 29.70 in 10.0 mi ESE 5.8 mph 16.1 mph N/A   Mostly Cloudy
11:54 AM 48.0 °F - 42.1 °F 80% 29.72 in 10.0 mi East 6.9 mph 18.4 mph N/A   Overcast
12:24 PM 48.2 °F - 42.8 °F 82% 29.73 in 10.0 mi East 6.9 mph 17.3 mph N/A   Overcast
12:54 PM 48.0 °F - 42.1 °F 80% 29.75 in 10.0 mi East 8.1 mph - N/A   Overcast
1:09 PM 48.2 °F - 42.8 °F 82% 29.74 in 10.0 mi Variable 6.9 mph - N/A   Overcast
1:26 PM 48.2 °F - 42.8 °F 82% 29.74 in 10.0 mi East 9.2 mph 17.3 mph N/A   Overcast
1:54 PM 48.0 °F - 42.1 °F 80% 29.77 in 10.0 mi East 11.5 mph 16.1 mph N/A   Overcast
2:19 PM 48.2 °F - 42.8 °F 82% 29.77 in 10.0 mi East 10.4 mph 20.7 mph N/A   Overcast
2:52 PM 48.2 °F - 42.8 °F 82% 29.78 in 10.0 mi East 12.7 mph 24.2 mph N/A   Overcast
2:54 PM 48.9 °F - 42.1 °F 77% 29.79 in 10.0 mi East 12.7 mph 24.2 mph N/A   Overcast
3:09 PM 48.2 °F - 42.8 °F 82% 29.78 in 10.0 mi ESE 6.9 mph 23.0 mph N/A   Overcast
3:39 PM 48.2 °F - 42.8 °F 82% 29.79 in 10.0 mi ESE 11.5 mph 20.7 mph N/A   Overcast
3:54 PM 46.9 °F - 42.1 °F 83% 29.80 in 10.0 mi East 9.2 mph 18.4 mph 0.00 in Rain Light Rain
4:54 PM 46.9 °F - 42.1 °F 83% 29.80 in 10.0 mi East 10.4 mph - 0.00 in   Overcast
5:13 PM 46.4 °F 41.5 °F 42.8 °F 87% 29.80 in 10.0 mi ESE 10.4 mph 19.6 mph N/A   Scattered Clouds
5:26 PM 46.4 °F 42.4 °F 42.8 °F 87% 29.80 in 10.0 mi ESE 8.1 mph - N/A   Mostly Cloudy
5:54 PM 46.9 °F - 42.1 °F 83% 29.81 in 10.0 mi ENE 6.9 mph 18.4 mph N/A   Overcast
6:54 PM 46.9 °F - 42.1 °F 83% 29.83 in 10.0 mi ESE 9.2 mph 18.4 mph N/A   Overcast
7:54 PM 46.9 °F - 42.1 °F 83% 29.84 in 10.0 mi East 12.7 mph 21.9 mph N/A   Overcast
8:54 PM 46.0 °F 41.9 °F 42.1 °F 86% 29.85 in 10.0 mi East 8.1 mph - N/A   Overcast
9:54 PM 46.0 °F 40.6 °F 41.0 °F 83% 29.84 in 10.0 mi East 11.5 mph 20.7 mph N/A   Overcast
10:25 PM 46.4 °F 41.1 °F 41.0 °F 81% 29.84 in 10.0 mi East 11.5 mph - N/A   Overcast
10:54 PM 46.9 °F - 41.0 °F 80% 29.85 in 10.0 mi East 10.4 mph 17.3 mph N/A   Overcast
11:08 PM 46.4 °F 42.9 °F 41.0 °F 81% 29.84 in 10.0 mi Variable 6.9 mph 18.4 mph N/A   Overcast
11:54 PM 46.0 °F 41.0 °F 41.0 °F 83% 29.84 in 10.0 mi ENE 10.4 mph - N/A   Overcast